Change the Weather History Date:

Saturday, April 20, 2013

  Actual Average Record
Temperature  
Mean Temperature 55 °F -  
Max Temperature 62 °F 60 °F 82 °F (2005)
Min Temperature 48 °F 45 °F 35 °F (2007)
Degree Days  
Heating Degree Days 10    
Growing Degree Days 5 (Base 50)    
Moisture  
Dew Point 37 °F    
Average Humidity 57    
Maximum Humidity 94    
Minimum Humidity 36    
Precipitation  
Precipitation 0.59 in - - ()
Sea Level Pressure  
Sea Level Pressure 30.03 in    
Wind  
Wind Speed 11 mph (NW)    
Max Wind Speed 16 mph    
Max Gust Speed 23 mph    
Visibility 10 miles    
Events      
Averages and records for this station are not official NWS values.
T = Trace of Precipitation, MM = Missing Value Source: NWS Daily Summary

Daily Weather History Graph

Daily Weather History Graph

Search for Another Location

Airport or City:

Trip Planner

Search our weather history database for the weather conditions in past years. The results will help you decide how hot, cold, wet, or windy it might be!

Date:

Astronomy

Apr. 20, 2013 Rise Set
Actual Time 6:15 AM EDT 7:41 PM EDT
Civil Twilight 5:47 AM EDT 8:09 PM EDT
Nautical Twilight 5:14 AM EDT 8:43 PM EDT
Astronomical Twilight 4:38 AM EDT 9:19 PM EDT
Moon 2:25 PM EDT (4/20) 3:00 AM EDT (4/20)
Length of Visible Light 14h 22m
Length of Day
13h 26m
Waxing Gibbous, 71% of the Moon is Illuminated
Apr 20
Waxing Gibbous
Apr 25
Full
May 2
Last Quarter
May 9
New
May 18
First Quarter

Hourly Weather History & Observations

Time (EDT) Temp. Dew Point Humidity Pressure Visibility Wind Dir Wind Speed Gust Speed Precip Events Conditions
12:15 AM 62.6 °F 60.8 °F 94% 29.76 in - South 15.0 mph 20.7 mph N/A   Unknown
12:35 AM 62.6 °F 59.0 °F 88% 29.75 in - South 13.8 mph 19.6 mph 0.01 in   Unknown
12:55 AM 62.6 °F 59.0 °F 88% 29.74 in - South 15.0 mph 20.7 mph 0.01 in   Unknown
1:15 AM 62.6 °F 59.0 °F 88% 29.73 in - South 16.1 mph 21.9 mph 0.01 in   Unknown
1:35 AM 57.2 °F 53.6 °F 88% 29.76 in - NW 11.5 mph 18.4 mph 0.02 in   Unknown
1:55 AM 55.4 °F 50.0 °F 82% 29.76 in 9.0 mi West 10.4 mph 18.4 mph 0.09 in   Overcast
2:35 AM 53.6 °F 50.0 °F 88% 29.77 in 6.0 mi WNW 8.1 mph - 0.12 in   Overcast
2:55 AM 53.6 °F 50.0 °F 88% 29.78 in 8.0 mi WNW 8.1 mph - 0.13 in   Overcast
3:15 AM 53.6 °F 50.0 °F 88% 29.78 in 7.0 mi WNW 10.4 mph - 0.02 in   Overcast
3:35 AM 51.8 °F 48.2 °F 88% 29.80 in 5.0 mi NNW 11.5 mph 23.0 mph 0.07 in   Overcast
3:55 AM 48.2 °F 44.6 °F 87% 29.82 in 7.0 mi NNW 9.2 mph 23.0 mph 0.15 in   Overcast
4:15 AM 48.2 °F 44.6 °F 87% 29.84 in 8.0 mi NNW 8.1 mph 20.7 mph 0.05 in   Overcast
4:35 AM 48.2 °F 44.6 °F 87% 29.87 in 8.0 mi NNW 9.2 mph 18.4 mph 0.10 in   Overcast
4:55 AM 48.2 °F 44.6 °F 87% 29.87 in 8.0 mi NNW 12.7 mph 16.1 mph 0.13 in   Mostly Cloudy
5:15 AM 48.2 °F 42.8 °F 82% 29.88 in 8.0 mi NNW 9.2 mph 19.6 mph 0.02 in   Overcast
5:35 AM 48.2 °F 42.8 °F 82% 29.90 in 9.0 mi NNW 8.1 mph 16.1 mph 0.03 in   Overcast
5:55 AM 48.2 °F 42.8 °F 82% 29.90 in 8.0 mi NNW 4.6 mph - 0.08 in   Overcast
6:15 AM 48.2 °F 44.6 °F 87% 29.91 in 10.0 mi NNW 5.8 mph - N/A   Overcast
6:35 AM 48.2 °F 44.6 °F 87% 29.92 in 10.0 mi NNW 5.8 mph - N/A   Mostly Cloudy
6:55 AM 48.2 °F 42.8 °F 82% 29.93 in 10.0 mi NW 5.8 mph - N/A   Mostly Cloudy
7:15 AM 50.0 °F 42.8 °F 76% 29.94 in 10.0 mi NW 6.9 mph - N/A   Mostly Cloudy
7:35 AM 51.8 °F 44.6 °F 76% 29.95 in 10.0 mi NW 11.5 mph - N/A   Mostly Cloudy
7:55 AM 51.8 °F 41.0 °F 67% 29.95 in 10.0 mi WNW 11.5 mph 19.6 mph N/A   Mostly Cloudy
8:15 AM 51.8 °F 39.2 °F 62% 29.96 in 10.0 mi WNW 10.4 mph 19.6 mph N/A   Overcast
8:35 AM 51.8 °F 37.4 °F 58% 29.98 in 10.0 mi WNW 11.5 mph 17.3 mph N/A   Mostly Cloudy
8:55 AM 53.6 °F 37.4 °F 54% 29.98 in 10.0 mi WNW 11.5 mph 17.3 mph N/A   Clear
9:15 AM 51.8 °F 37.4 °F 58% 29.99 in 10.0 mi WNW 9.2 mph 17.3 mph N/A   Clear
9:35 AM 51.8 °F 37.4 °F 58% 30.01 in 10.0 mi WNW 13.8 mph 21.9 mph N/A   Clear
9:55 AM 51.8 °F 35.6 °F 54% 30.03 in 10.0 mi WNW 12.7 mph 19.6 mph N/A   Partly Cloudy
10:15 AM 53.6 °F 37.4 °F 54% 30.04 in 10.0 mi WNW 12.7 mph 19.6 mph N/A   Partly Cloudy
10:35 AM 51.8 °F 33.8 °F 50% 30.05 in 10.0 mi WNW 13.8 mph 20.7 mph N/A   Clear
10:55 AM 51.8 °F 35.6 °F 54% 30.06 in 10.0 mi West 10.4 mph 19.6 mph N/A   Clear
11:15 AM 51.8 °F 30.2 °F 44% 30.06 in 10.0 mi WNW 16.1 mph 23.0 mph N/A   Clear
11:35 AM 51.8 °F 30.2 °F 44% 30.07 in 10.0 mi NW 9.2 mph 21.9 mph N/A   Clear
11:55 AM 51.8 °F 28.4 °F 41% 30.06 in 10.0 mi WNW 15.0 mph 23.0 mph N/A   Clear
12:15 PM 51.8 °F 32.0 °F 47% 30.06 in 10.0 mi WNW 12.7 mph 21.9 mph N/A   Clear
12:35 PM 51.8 °F 32.0 °F 47% 30.06 in 10.0 mi WNW 12.7 mph 21.9 mph N/A   Clear
12:55 PM 51.8 °F 30.2 °F 44% 30.07 in 10.0 mi WNW 12.7 mph 23.0 mph N/A   Clear
1:15 PM 53.6 °F 32.0 °F 44% 30.06 in 10.0 mi WNW 13.8 mph 20.7 mph N/A   Clear
1:35 PM 51.8 °F 32.0 °F 47% 30.06 in 10.0 mi WNW 12.7 mph 19.6 mph N/A   Clear
1:55 PM 51.8 °F 33.8 °F 50% 30.07 in 10.0 mi West 9.2 mph 19.6 mph N/A   Clear
2:15 PM 53.6 °F 33.8 °F 47% 30.07 in 10.0 mi NW 12.7 mph 16.1 mph N/A   Clear
2:35 PM 51.8 °F 33.8 °F 50% 30.07 in 10.0 mi WNW 8.1 mph - N/A   Clear
2:55 PM 53.6 °F 33.8 °F 47% 30.06 in 10.0 mi WNW 6.9 mph - N/A   Clear
3:15 PM 55.4 °F 32.0 °F 41% 30.07 in 10.0 mi WNW 8.1 mph 19.6 mph N/A   Clear
3:35 PM 57.2 °F 33.8 °F 41% 30.07 in - WNW 11.5 mph 18.4 mph N/A   Clear
3:55 PM 55.4 °F 33.8 °F 44% 30.07 in 10.0 mi WNW 10.4 mph - N/A   Clear
4:15 PM 55.4 °F 33.8 °F 44% 30.08 in 10.0 mi West 9.2 mph - N/A   Clear
4:35 PM 55.4 °F 32.0 °F 41% 30.09 in 10.0 mi WNW 10.4 mph - N/A   Clear
4:55 PM 55.4 °F 32.0 °F 41% 30.09 in 10.0 mi WNW 10.4 mph - N/A   Clear
5:15 PM 55.4 °F 32.0 °F 41% 30.10 in 10.0 mi West 11.5 mph 16.1 mph N/A   Clear
5:35 PM 57.2 °F 33.8 °F 41% 30.10 in 10.0 mi West 8.1 mph - N/A   Clear
5:55 PM 57.2 °F 33.8 °F 41% 30.11 in - WNW 9.2 mph - N/A   Clear
6:15 PM 57.2 °F 33.8 °F 41% 30.12 in - WNW 9.2 mph - N/A   Clear
6:35 PM 57.2 °F 32.0 °F 38% 30.13 in 10.0 mi NW 8.1 mph - N/A   Clear
6:55 PM 57.2 °F 32.0 °F 38% 30.14 in 10.0 mi NW 6.9 mph 18.4 mph N/A   Partly Cloudy
7:15 PM 55.4 °F 30.2 °F 38% 30.15 in 10.0 mi WNW 9.2 mph - N/A   Partly Cloudy
7:35 PM 55.4 °F 30.2 °F 38% 30.16 in 10.0 mi NW 9.2 mph 19.6 mph N/A   Clear
7:55 PM 55.4 °F 28.4 °F 36% 30.17 in 10.0 mi NW 8.1 mph 17.3 mph N/A   Clear
8:15 PM 55.4 °F 30.2 °F 38% 30.19 in 10.0 mi NW 9.2 mph - N/A   Clear
8:35 PM 55.4 °F 28.4 °F 36% 30.21 in 10.0 mi NW 6.9 mph 17.3 mph N/A   Clear
8:55 PM 53.6 °F 28.4 °F 38% 30.22 in 10.0 mi NW 11.5 mph 16.1 mph N/A   Clear
9:15 PM 53.6 °F 28.4 °F 38% 30.24 in 10.0 mi NNW 10.4 mph - N/A   Clear
9:35 PM 53.6 °F 28.4 °F 38% 30.25 in 10.0 mi NW 9.2 mph 19.6 mph N/A   Clear
9:55 PM 53.6 °F 28.4 °F 38% 30.27 in 10.0 mi NNW 8.1 mph - N/A   Clear
10:15 PM 53.6 °F 28.4 °F 38% 30.28 in 10.0 mi North 10.4 mph 17.3 mph N/A   Clear
10:35 PM 51.8 °F 26.6 °F 38% 30.28 in 10.0 mi North 9.2 mph - N/A   Clear
10:55 PM 51.8 °F 26.6 °F 38% 30.29 in 10.0 mi NNW 11.5 mph - N/A   Clear
11:15 PM 51.8 °F 26.6 °F 38% 30.29 in 10.0 mi NNW 11.5 mph - N/A   Clear
11:35 PM 51.8 °F 26.6 °F 38% 30.29 in 10.0 mi North 9.2 mph - N/A   Clear
11:55 PM 50.0 °F 26.6 °F 40% 30.30 in 10.0 mi North 9.2 mph - N/A   Clear